カタログに戻る

COSMOS 1579 COOLANT

運用中LEO
NORAD 26517·DEBRIS·🇷🇺 Russia

打ち上げ Jun 29, 1984 から Baikonur Cosmodrome

Loading…

次のパス (今後24時間)

TLE

古いSource: Space-Track

元期: Sep 4, 2026, 05:39 UTC

1 26517U 84069J   26247.23606411  .00000005  00000-0  74294-4 0  9997
2 26517  65.0498  56.1010 0052041 323.4298 212.1018 13.91246586666346

AllMySatでCOSMOS 1579 COOLANTをリアルタイム追跡

Download on the App Store